This is the latest recevied weather packets stored in our database for station/object DL1NER. If no packets are shown the sender has not sent any weather packets the latest 10 day(s).
| Time | Temp. | Humidity | Pressure | Rain* | Wind** | Luminosity | Snow |
|---|---|---|---|---|---|---|---|
| 1777511412 | 5.56° C | 41% | 1028.9 hPa | 0 mm | - | 0 W/m² | - |
| 1777510812 | 6.11° C | 40% | 1029 hPa | 0 mm | - | 0 W/m² | - |
| 1777510212 | 6.11° C | 38% | 1028.9 hPa | 0 mm | - | 0 W/m² | - |
| 1777509612 | 6.67° C | 38% | 1028.9 hPa | 0 mm | - | 0 W/m² | - |
| 1777509012 | 6.67° C | 38% | 1029 hPa | 0 mm | - | 0 W/m² | - |
| 1777508412 | 6.67° C | 37% | 1028.9 hPa | 0 mm | - | 0 W/m² | - |
| 1777507812 | 6.67° C | 37% | 1028.9 hPa | 0 mm | - | 0 W/m² | - |
| 1777507212 | 6.67° C | 37% | 1028.8 hPa | 0 mm | - | 0 W/m² | - |
| 1777506612 | 7.22° C | 37% | 1028.7 hPa | 0 mm | - | 0 W/m² | - |
| 1777506012 | 7.22° C | 37% | 1028.7 hPa | 0 mm | - | 0 W/m² | - |
| 1777505412 | 7.22° C | 37% | 1028.6 hPa | 0 mm | - | 0 W/m² | - |
| 1777504812 | 7.78° C | 37% | 1028.6 hPa | 0 mm | - | 0 W/m² | - |
| 1777504212 | 7.78° C | 36% | 1028.5 hPa | 0 mm | - | 0 W/m² | - |
| 1777503612 | 7.78° C | 36% | 1028.4 hPa | 0 mm | - | 0 W/m² | - |
| 1777503012 | 8.33° C | 36% | 1028.4 hPa | 0 mm | - | 0 W/m² | - |
| 1777502412 | 8.33° C | 36% | 1028.4 hPa | 0 mm | - | 0 W/m² | - |
| 1777501811 | 8.33° C | 36% | 1028.3 hPa | 0 mm | - | 0 W/m² | - |
| 1777501211 | 8.33° C | 36% | 1028.2 hPa | 0 mm | - | 0 W/m² | - |
| 1777500611 | 8.89° C | 36% | 1028 hPa | 0 mm | - | 0 W/m² | - |
| 1777500011 | 8.89° C | 35% | 1027.9 hPa | 0 mm | - | 0 W/m² | - |
| 1777499411 | 9.44° C | 35% | 1027.8 hPa | 0 mm | - | 0 W/m² | - |
| 1777498811 | 9.44° C | 35% | 1027.8 hPa | 0 mm | - | 0 W/m² | - |
| 1777498211 | 9.44° C | 35% | 1027.7 hPa | 0 mm | - | 0 W/m² | - |
| 1777497611 | 9.44° C | 34% | 1027.6 hPa | 0 mm | - | 0 W/m² | - |
| 1777497011 | 10° C | 34% | 1027.3 hPa | 0 mm | - | 0 W/m² | - |
* Rain latest hour (hover to see other rain measurements)
** Current wind speed in m/s (hover to see current wind gust speed)